Weather in Bhimdatta

Nepal     28°58′25″N   80°10′33″E
temp.,
°C
wind,
m/s
gust,
m/s
humid.,
%
clouds,
%
prec.,
mm/h
press.,
hPa
HPBL,
m
20 april, tue
tue2023:45+24nne43170 0.0 100541
02:45+23nne56183 0.0 100479
05:45+20nne452115 0.0 100570
08:45+31nne341121 0.0 1006390
11:45+38sw34514 0.0 10053080
14:45+39wsw565100 0.0 10024442
17:45+35w5610100 0.0 1003429
20:45+30ne3414100 0.0 100450
21 april, wed
wed2123:45+28nne4416100 0.0 100455
02:45+27nnw6916100 0.0 1004200
05:45+25nne5721100 0.0 1008124
08:45+30ne4621100 0.0 1009794
11:45+35ese231624 0.0 10093432
14:45+36sse891495 0.0 10054212
17:45+34se571520 0.0 10042572
20:45+24nne564174 0.3 1010190
22 april, thu
thu2223:45+20n5757100 0.6 1011141
02:45+20nne586062 0.1 1010162
05:45+19nne5758100 0.1 1010151
08:45+28nne442815 0.0 1011484
11:45+35wsw35134 0.0 10094439
14:45+36wsw66107 0.0 10064353
17:45+34wnw35120 0.0 10053570
20:45+24nne56310 0.0 100891
23 april, fri
fri2323:45+21nne57420 0.0 1009133
02:45+20nne57420 0.0 1008118
05:45+20nne57410 0.0 1009107
08:45+30n44200 0.0 1009428
11:45+36w23100 0.0 10073372
14:45+38wsw5684 0.0 10044489
17:45+36w6898 0.0 10033211
20:45+27nne71125100 0.0 1007313
24 april, sat
sat2423:45+24n573863 0.1 1009145
02:45+24nne573599 0.0 1007124
05:45+21nne68387 0.1 1007126
08:45+31nne45183 0.0 1008517
11:45+38wsw48105 0.0 10074555
14:45+39w87920 0.0 10044527
17:45+37w6680 0.0 10033302
20:45+26nne56274 0.0 100675